Regional Weather Roundup
Issued by NWS Upton, NY

Current Version | Previous Version | Graphics & Text | Print | Product List | Glossary Off
Versions: 1 2 3 4 5 6 7 8 9 10 11 12 13 14 15 16 17 18 19 20 21 22 23 24 25 26 27 28 29 30 31 32 33 34 35 36 37 38 39 40 41 42 43 44 45 46 47 48 49 50

000
ASUS41 KOKX 231305
RWROKX

REGIONAL WEATHER ROUNDUP
NATIONAL WEATHER SERVICE NEW YORK NY
800 AM EST SUN NOV 23 2014

NOTE: "FAIR" INDICATES FEW OR NO CLOUDS BELOW 12,000 FEET WITH NO
SIGNIFICANT WEATHER AND/OR OBSTRUCTIONS TO VISIBILITY.

NYZ071-072-176-178-NJZ106-104-231400-
NEW YORK CITY METRO AREA


CITY           SKY/WX    TMP DP  RH WIND       PRES   REMARKS
CENTRAL PARK   CLOUDY    44  21  40 W9        30.23R
LAGUARDIA APRT PTSUNNY   44  22  41 SW9       30.22R
KENNEDY INTL   PTSUNNY   44  26  49 SW8       30.23R
NEWARK/LIBERTY MOCLDY    42  24  49 SW7       30.22R
BRNX BOT. GARD   N/A    N/A N/A N/A W3        30.23R
TETERBORO      CLOUDY    42  24  49 S7        30.20R
$$

NYZ177-179-078>081-231400-
LONG ISLAND NEW YORK

CITY           SKY/WX    TMP DP  RH WIND       PRES   REMARKS
FARMINGDALE    CLOUDY    45  26  47 SW10      30.22R
ISLIP          PTSUNNY   45  25  45 SW12      30.21R
SHIRLEY        PTSUNNY   46  26  45 SW12      30.23R
WESTHAMPTON    CLOUDY    46  28  49 SW16G23   30.22R
MONTAUK POINT    N/A     48  30  49 SW9G18    30.20S
$$

NYZ052-065-067-231400-
HUDSON VALLEY

CITY           SKY/WX    TMP DP  RH WIND       PRES   REMARKS
WHITE PLAINS   MOCLDY    42  21  43 W6        30.18R
NEWBURGH       MOCLDY    41  21  45 W9        30.18R
MONTGOMERY     MOCLDY    41  21  44 SW9       30.17R
POUGHKEEPSIE   MOCLDY    44  21  40 S6        30.17R
ALBANY         CLOUDY    42  27  55 S7        30.12R
$$

NJZ001-105-106-008-010-013-015-019>022-104-231400-
NEW JERSEY

CITY           SKY/WX    TMP DP  RH WIND       PRES   REMARKS
NEWARK/LIBERTY MOCLDY    42  24  49 SW7       30.22R
TETERBORO      CLOUDY    42  24  49 S7        30.20R
CALDWELL       CLOUDY    41  21  44 VRB5      30.21R
MORRISTOWN     MOCLDY    39  23  52 CALM      30.21R
SOMERVILLE     CLOUDY    36  27  69 CALM      30.20R
SUSSEX         CLOUDY    40  21  46 SW3       30.18R
ANDOVER          N/A     40  20  44 S5        30.19R
TRENTON        CLOUDY    39  26  59 S3        30.22S
MILLVILLE      MOSUNNY   41  27  57 W3        30.27R
ATLANTIC CITY  PTSUNNY   42  27  55 SW9       30.27R
WRIGHTSTOWN    PTSUNNY   40  22  49 W6        30.22R
TOMS RIVER     PTSUNNY   43  21  42 SW3       30.24R
BELMAR         MOSUNNY   41  19  42 SW8       30.22S
$$

PAZ047>061-062-071-231400-
EASTERN PENNSYLVANIA

CITY           SKY/WX    TMP DP  RH WIND       PRES   REMARKS
PHILADELPHIA   MOCLDY    43  24  47 S8        30.25R
ALLENTOWN      MOCLDY    38  26  62 CALM      30.20F
SCRANTON       MOCLDY    42  19  39 SW3       30.15R
$$

CTZ002-004>006-009-010-012-RIZ004-006-007-MAZ004-011-015-231400-
SOUTHERN NEW ENGLAND
 IN CT

CITY           SKY/WX    TMP DP  RH WIND       PRES   REMARKS
BRADLEY INTL   PTSUNNY   44  22  41 S8        30.14R
HARTFORD       CLOUDY    43  22  43 S8        30.16R
DANBURY        LGT RAIN  40  22  48 SW3       30.19R
WTRBRY/OXFORD  PTSUNNY   37  19  48 S6        30.17  WCI  33
BRIDGEPORT     PTSUNNY   45  30  55 W8        30.19R
MERIDEN        CLOUDY    42  22  44 S6        30.18R
NEW HAVEN      PTSUNNY   48  32  53 W7        30.19R
CHESTER        FAIR      43  32  65 SW9       30.18R
GROTON         CLOUDY    46  31  55 SW13      30.19R
WILLIMANTIC    CLOUDY    44  21  40 SW6       30.17R

 IN RI

CITY           SKY/WX    TMP DP  RH WIND       PRES   REMARKS
PROVIDENCE     PTSUNNY   45  29  53 SW8       30.17R
BLOCK ISLAND   PTSUNNY   48  32  53 W20G28    30.19R
WESTERLY       CLOUDY    47  29  49 SW12      30.19R

 IN MA

CITY           SKY/WX    TMP DP  RH WIND       PRES   REMARKS
BOSTON         PTSUNNY   44  27  51 SW15      30.11R
WORCESTER      PTSUNNY   38  26  62 SW9       30.11R WCI  31
WESTFIELD      CLOUDY    35  31  85 NE3       30.13R
PROVINCETOWN   CLOUDY    48  32  53 SW15      30.15R
NANTUCKET      PTSUNNY   53  40  61 SW21G31   30.18S
$$

ANZ330-335-338-340-345-350-353-355-231400-
COASTAL MARINE OBSERVATIONS


STATION/POSITION TIME  SKY/WX   TEMP    WIND        PRES    VSBY  WAVE
                                AIR SEA DIR/SP/G                  HT/PER
                 (UTC)          (F)     (DEG/KT/KT) (MB)    (MI)  (FT/S)
NY HARB ENTRANCE 1300            48 57  250/ 16/ 17 1023.7          4/ 7
4S FIRE IS       1300               52                N/A           6/ 6
20S FIRE ISLAND  1300            51 53  250/ 19/ 23 1023.3          7/ 7
23SW MTP         1300                                 N/A           8/ 8
HUDSON CANYON    1300            55 58  240/ 21/ 25 1023.9          7/ 7
EXECUTION ROCKS  NOT AVBL
WESTERN LI SOUND NOT AVBL
CENTRAL LI SOUND NOT AVBL
EASTERN LI SOUND NOT AVBL
ROBBINS REEF     1300            42     240/  7/ 10 1021.9
$$


>>>>>>>>>>>>>>>>>>>>>>>>>>>> KEY <<<<<<<<<<<<<<<<<<<<<<<<<<<
>                                                          <
>     SKY/WX - SKY CONDITION/PRESENT WEATHER               <
>     TMP    - TEMPERATURE IN FAHRENHEIT                   <
>     DP     - DEWPOINT IN FAHRENHEIT                      <
>     RH     - RELATIVE HUMIDITY IN PERCENT                <
>     WIND   - DIRECTION AND SPEED IN MPH                  <
>     PRES   - MEAN SEA LEVEL PRESSURE IN INCHES OF HG     <
>     WCI    - WIND CHILL INDEX                            <
>     VSB    - VISIBILITY IN MILES                         <
>     HX     - HEAT INDEX                                  <
>     TC     - TEMPERATURE IN CELSIUS                      <
>     VRB    - VARIABLE WIND DIRECTION                     <
>                                                          <
>>>>>>>>>>>>>>>>>>>>>>>>>>>> KEY <<<<<<<<<<<<<<<<<<<<<<<<<<<





USA.gov is the U.S. government's official web portal to all federal, state and local government web resources and services.